Home > Weather > Ulaanbaatar > Past weeks

Flag for Mongolia Weather for the Past 2 Weeks in Ulaanbaatar, Mongolia

Now
23 °F

Clear.


Feels Like: 23 °F
Forecast: -1 / 31 °F
Wind: 1 mph from North

Location: Ulan-Bator

Current Time: Feb 9, 2016 at 5:10:44 PM

Latest Report: Feb 9, 2016 at 4:00 PM


Visibility: 3 mi

Pressure: 29.62 "Hg (25.10 "Hg at 1298m altitude)

Humidity: 63%

Dew point: 12 °F

Location of UlaanbaatarLocation

Historic Weather in Ulaanbaatar — Graph

°F

Ulaanbaatar Temperature Yesterday

Maximum temperature yesterday: 16 °F (at 4:00 PM)
Minimum temperature yesterday: -8 °F (at 2:00 AM)
Average temperature yesterday: 2 °F

High & Low Weather Summary for the Past Weeks

 TemperatureHumidityPressure
High23 °F (Feb 9, 2:30 PM)85% (Feb 4, 3:00 PM)30.54 "Hg (Feb 4, 3:00 PM)
Low-40 °F (Jan 29, 8:30 AM)50% (Feb 1, 2:30 PM)29.62 "Hg (Feb 9, 4:00 PM)
Average-13 °F71%30.23 "Hg
* Reported Jan 25 4:00 PM — Feb 9 4:00 PM, Ulaanbaatar, Weather by CustomWeather, © 2016

Note: Actual official high and low records may vary slightly from our data, if they occured in-between our weather recording intervals... More about our weather records

Advertising

Ulaanbaatar Weather History for the Previous 24 Hours

 ConditionsComfort  
Time TempWeatherWind HumidityBarometerVisibility
4:00 PM
Tue, Feb 9
23 °FClear.1 mph63%29.62 "Hg3 mi
3:30 PM23 °FClear.1 mph63%29.65 "Hg3 mi
3:00 PM19 °FClear.1 mph68%29.65 "Hg3 mi
2:30 PM23 °FClear.No wind54%29.65 "Hg3 mi
2:00 PM18 °FPartly sunny.1 mph68%29.68 "Hg3 mi
1:30 PM16 °FPartly sunny.1 mph67%29.68 "Hg3 mi
1:00 PM16 °FPartly sunny.1 mph62%29.71 "Hg3 mi
12:30 PM10 °FPartly sunny.3 mph72%29.71 "Hg2 mi
12:00 PM9 °FPartly sunny.1 mph78%29.71 "Hg2 mi
11:30 AM9 °FPartly sunny.No wind85%29.71 "Hg2 mi
11:00 AM7 °FPartly sunny.No wind85%29.74 "Hg2 mi
10:30 AM5 °FPartly sunny.1 mph78%29.74 "Hg2 mi
9:30 AM-4 °FPartly sunny.1 mph77%29.74 "Hg2 mi
9:00 AM-4 °FPassing clouds.No wind84%29.74 "Hg2 mi
8:30 AM-8 °FClear.No wind84%29.74 "Hg3 mi
8:00 AM-6 °FClear.1 mph77%29.74 "Hg3 mi
7:30 AM-6 °FClear.No wind84%29.71 "Hg4 mi
7:00 AM-6 °FClear.No wind77%29.74 "Hg4 mi
6:00 AM-4 °FClear.1 mph77%29.74 "Hg4 mi
5:30 AM-8 °FClear.1 mph84%29.74 "Hg4 mi
5:00 AM-8 °FClear.1 mph77%29.77 "Hg4 mi
4:00 AM-6 °FClear.1 mph77%29.77 "Hg4 mi
3:00 AM-6 °FClear.1 mph77%29.77 "Hg4 mi
2:00 AM-2 °FClear.No wind84%29.80 "Hg5 mi
1:00 AM-8 °FClear.1 mph77%29.80 "Hg10 mi
12:00 AM-8 °FClear.1 mph77%29.83 "Hg10 mi
11:30 PM
Mon, Feb 8
0 °FClear.No wind84%29.83 "Hg10 mi
11:00 PM-2 °FClear.No wind84%29.83 "Hg10 mi
10:30 PM-6 °FClear.1 mph77%29.83 "Hg10 mi
10:00 PM-4 °FClear.3 mph84%29.86 "Hg10 mi
9:30 PM-4 °FClear.1 mph84%29.86 "Hg10 mi
9:00 PM0 °FClear.1 mph84%29.86 "Hg10 mi
8:30 PM-2 °FClear.3 mph84%29.86 "Hg10 mi
8:00 PM-2 °FClear.3 mph77%29.86 "Hg10 mi
7:30 PM5 °FClear.1 mph85%29.86 "Hg10 mi
7:00 PM1 °FSunny.1 mph85%29.86 "Hg10 mi
6:30 PM9 °FSunny.1 mph85%29.86 "Hg10 mi
6:00 PM7 °FSunny.1 mph85%29.86 "Hg10 mi
5:30 PM12 °FSunny.No wind73%29.86 "Hg10 mi
5:00 PM14 °FSunny.1 mph79%29.89 "Hg10 mi
Weather by CustomWeather, © 2016

See weather overviewHow to use our weather pages